Terug naar catalogus

KUIPER-00641

ActiefCommunicatieLEO
NORAD 69787·PAYLOAD·🇺🇸 United States

Gelanceerd Jul 2, 2026 vanaf Cape Canaveral Space Force Station

Loading…

Volgende Passages (komende 24 uur)

TLE

VersSource: CelesTrak SupGP

Epoch: Sep 14, 2026, 21:20 UTC

1 69787C 26151AA  26257.88900463 -.00578500  00000+0 -70963-1 0  2571
2 69787  51.9002 249.0498 0009644  45.7200 193.1641 14.83189655    19

Volg KUIPER-00641 in realtime met AllMySat

Download on the App Store